LCO056 SEGU-SCEL

Flight info

Callsign LCO056
Flight time 4h 36m
Altitude FL350
Route EVRED UL780 ISREN UM542 ILMAR UL302 TOY UV208 EMBAL UV204 SIMOK SIMOK7B
Aircraft B737/M-S/N

Departure

Time 2026-05-04 12:05
Airport José Joaquín de Olmedo International Airport (SEGU)

Arrival

Time 2026-05-04 16:41
Airport Comodoro Arturo Merino Benítez International Airport (SCEL)
Time Latitude Longitude Altitude Speed Heading
2026-05-04 11:55 -2.14840 -79.88299 27 ft 0 kts 298°
2026-05-04 11:56 -2.14841 -79.88296 27 ft 2 kts 298°
2026-05-04 11:56 -2.14849 -79.88282 27 ft 3 kts 298°
2026-05-04 11:56 -2.14858 -79.88265 27 ft 3 kts 298°
2026-05-04 11:56 -2.14864 -79.88254 27 ft 3 kts 298°
2026-05-04 11:57 -2.14868 -79.88246 27 ft 3 kts 298°
2026-05-04 11:57 -2.14877 -79.88229 27 ft 0 kts 298°
2026-05-04 12:00 -2.14877 -79.88230 27 ft 0 kts 298°
2026-05-04 12:00 -2.14868 -79.88235 27 ft 3 kts
2026-05-04 12:01 -2.14846 -79.88216 27 ft 6 kts 46°
2026-05-04 12:01 -2.14808 -79.88177 27 ft 6 kts 46°
2026-05-04 12:02 -2.14659 -79.87879 27 ft 9 kts 47°
2026-05-04 12:03 -2.14627 -79.87821 27 ft 10 kts 71°
2026-05-04 12:03 -2.14609 -79.87746 27 ft 10 kts 93°
2026-05-04 12:03 -2.14653 -79.87691 27 ft 10 kts 186°
2026-05-04 12:03 -2.14719 -79.87721 27 ft 33 kts 209°
2026-05-04 12:04 -2.15229 -79.87998 27 ft 132 kts 206°
2026-05-04 12:04 -2.16293 -79.88537 193 ft 197 kts 207°
2026-05-04 12:04 -2.16646 -79.88712 464 ft 189 kts 206°
2026-05-04 12:04 -2.17167 -79.88969 591 ft 204 kts 206°
2026-05-04 12:05 -2.18515 -79.89682 671 ft 217 kts 208°
2026-05-04 12:05 -2.19848 -79.90414 1123 ft 228 kts 209°
2026-05-04 12:05 -2.21298 -79.91215 1566 ft 240 kts 209°
2026-05-04 12:05 -2.22750 -79.92018 2013 ft 239 kts 209°
2026-05-04 12:06 -2.24219 -79.92831 2467 ft 244 kts 209°
2026-05-04 12:06 -2.25710 -79.93657 2920 ft 246 kts 209°
2026-05-04 12:06 -2.27273 -79.94369 3348 ft 249 kts 195°
2026-05-04 12:06 -2.28996 -79.94362 3800 ft 253 kts 167°
2026-05-04 12:07 -2.30624 -79.93672 4282 ft 257 kts 152°
2026-05-04 12:07 -2.32185 -79.92770 4736 ft 260 kts 149°
2026-05-04 12:07 -2.33757 -79.91877 5185 ft 262 kts 152°
2026-05-04 12:07 -2.35391 -79.91046 5637 ft 265 kts 155°
2026-05-04 12:08 -2.37079 -79.90294 6090 ft 267 kts 160°
2026-05-04 12:08 -2.38815 -79.89610 6544 ft 269 kts 163°
2026-05-04 12:08 -2.40578 -79.88985 6996 ft 269 kts 165°
2026-05-04 12:08 -2.42357 -79.88406 7446 ft 270 kts 166°
2026-05-04 12:09 -2.44157 -79.87855 7898 ft 271 kts 167°
2026-05-04 12:09 -2.45966 -79.87324 8348 ft 272 kts 168°
2026-05-04 12:09 -2.47796 -79.86803 8800 ft 274 kts 168°
2026-05-04 12:09 -2.49637 -79.86288 9251 ft 276 kts 168°
2026-05-04 12:10 -2.51490 -79.85777 9703 ft 277 kts 169°
2026-05-04 12:10 -2.53353 -79.85268 10153 ft 279 kts 169°
2026-05-04 12:10 -2.55233 -79.84756 10605 ft 281 kts 169°
2026-05-04 12:10 -2.57117 -79.84245 11055 ft 283 kts 169°
2026-05-04 12:11 -2.59028 -79.83727 11507 ft 285 kts 169°
2026-05-04 12:11 -2.60942 -79.83209 11958 ft 286 kts 169°
2026-05-04 12:11 -2.62875 -79.82686 12410 ft 288 kts 169°
2026-05-04 12:11 -2.64659 -79.82204 12825 ft 290 kts 169°
2026-05-04 12:12 -2.66613 -79.81676 13276 ft 292 kts 169°
2026-05-04 12:12 -2.68579 -79.81144 13727 ft 294 kts 169°
2026-05-04 12:12 -2.70562 -79.80608 14178 ft 296 kts 169°
2026-05-04 12:12 -2.72556 -79.80069 14630 ft 298 kts 169°
2026-05-04 12:13 -2.74561 -79.79526 15080 ft 300 kts 169°
2026-05-04 12:14 -2.89178 -79.76960 18242 ft 311 kts 176°
2026-05-04 12:15 -2.91345 -79.76671 18695 ft 319 kts 177°
2026-05-04 12:15 -2.93603 -79.76378 19155 ft 337 kts 177°
2026-05-04 12:15 -2.95981 -79.76075 19615 ft 351 kts 176°
2026-05-04 12:15 -2.98438 -79.75761 20070 ft 360 kts 176°
2026-05-04 12:16 -3.00941 -79.75441 20524 ft 366 kts 176°
2026-05-04 12:16 -3.03487 -79.75113 20976 ft 372 kts 176°
2026-05-04 12:16 -3.06072 -79.74781 21429 ft 377 kts 176°
2026-05-04 12:16 -3.08689 -79.74443 21881 ft 381 kts 176°
2026-05-04 12:17 -3.11325 -79.74103 22332 ft 384 kts 176°
2026-05-04 12:17 -3.13989 -79.73760 22784 ft 387 kts 176°
2026-05-04 12:17 -3.16675 -79.73413 23236 ft 390 kts 176°
2026-05-04 12:17 -3.19374 -79.73066 23687 ft 393 kts 176°
2026-05-04 12:18 -3.22097 -79.72715 24138 ft 396 kts 176°
2026-05-04 12:18 -3.24840 -79.72363 24590 ft 399 kts 176°
2026-05-04 12:18 -3.27599 -79.72008 25041 ft 401 kts 176°
2026-05-04 12:18 -3.30372 -79.71651 25491 ft 403 kts 176°
2026-05-04 12:19 -3.33155 -79.71294 25942 ft 404 kts 176°
2026-05-04 12:19 -3.35946 -79.70935 26392 ft 405 kts 176°
2026-05-04 12:19 -3.38745 -79.70575 26843 ft 406 kts 176°
2026-05-04 12:19 -3.41548 -79.70215 27293 ft 407 kts 176°
2026-05-04 12:20 -3.44355 -79.69854 27743 ft 407 kts 176°
2026-05-04 12:20 -3.47170 -79.69492 28193 ft 408 kts 176°
2026-05-04 12:20 -3.49978 -79.69131 28642 ft 408 kts 176°
2026-05-04 12:20 -3.51703 -79.68910 28918 ft 408 kts 176°
2026-05-04 12:21 -3.54518 -79.68548 29368 ft 408 kts 176°
2026-05-04 12:21 -3.57333 -79.68186 29818 ft 408 kts 176°
2026-05-04 12:21 -3.60144 -79.67825 30268 ft 407 kts 176°
2026-05-04 12:21 -3.62951 -79.67465 30717 ft 406 kts 176°
2026-05-04 12:22 -3.65753 -79.67105 31167 ft 405 kts 176°
2026-05-04 12:22 -3.68542 -79.66746 31615 ft 404 kts 176°
2026-05-04 12:22 -3.71328 -79.66388 32065 ft 403 kts 176°
2026-05-04 12:22 -3.74107 -79.66031 32514 ft 402 kts 176°
2026-05-04 12:23 -3.76871 -79.65676 32963 ft 400 kts 176°
2026-05-04 12:23 -3.79624 -79.65322 33411 ft 399 kts 176°
2026-05-04 12:23 -3.82371 -79.64970 33861 ft 397 kts 176°
2026-05-04 12:23 -3.85101 -79.64619 34309 ft 395 kts 176°
2026-05-04 12:24 -3.87817 -79.64270 34756 ft 393 kts 176°
2026-05-04 12:24 -3.90545 -79.63921 34923 ft 399 kts 176°
2026-05-04 12:24 -3.96164 -79.63208 35003 ft 415 kts 176°
2026-05-04 12:25 -4.01998 -79.62468 35003 ft 431 kts 176°
2026-05-04 12:25 -4.08033 -79.61699 35002 ft 443 kts 176°
2026-05-04 12:26 -4.14217 -79.60907 35001 ft 453 kts 176°
2026-05-04 12:26 -4.20512 -79.60097 35001 ft 460 kts 175°
2026-05-04 12:27 -4.26901 -79.59274 35001 ft 466 kts 175°
2026-05-04 12:27 -4.33353 -79.58441 35000 ft 469 kts 175°
2026-05-04 12:28 -4.39832 -79.57604 35000 ft 471 kts 175°
2026-05-04 12:28 -4.46336 -79.56764 35000 ft 472 kts 175°
2026-05-04 12:29 -4.52842 -79.55936 35000 ft 472 kts 176°
2026-05-04 12:29 -4.59364 -79.55118 35000 ft 473 kts 176°
2026-05-04 12:30 -4.65895 -79.54303 35000 ft 473 kts 176°
2026-05-04 12:30 -4.72419 -79.53490 35000 ft 473 kts 176°
2026-05-04 12:31 -4.78948 -79.52676 35000 ft 473 kts 176°
2026-05-04 12:31 -4.85467 -79.51863 35000 ft 473 kts 176°
2026-05-04 12:32 -4.95265 -79.50641 35000 ft 473 kts 176°
2026-05-04 12:33 -5.01788 -79.49826 35000 ft 473 kts 176°
2026-05-04 12:33 -5.08321 -79.49010 35000 ft 473 kts 176°
2026-05-04 12:34 -5.14844 -79.48195 35000 ft 473 kts 176°
2026-05-04 12:34 -5.21370 -79.47380 35000 ft 473 kts 176°
2026-05-04 12:35 -5.27898 -79.46564 35000 ft 473 kts 176°
2026-05-04 12:35 -5.34428 -79.45747 35000 ft 473 kts 176°
2026-05-04 12:36 -5.40962 -79.44930 35000 ft 473 kts 176°
2026-05-04 12:36 -5.47485 -79.44114 35000 ft 473 kts 176°
2026-05-04 12:37 -5.54018 -79.43296 35000 ft 473 kts 176°
2026-05-04 12:37 -5.60541 -79.42480 35000 ft 473 kts 176°
2026-05-04 12:38 -5.67064 -79.41663 35000 ft 473 kts 176°
2026-05-04 12:38 -5.73595 -79.40845 35000 ft 473 kts 176°
2026-05-04 12:39 -5.80131 -79.40026 35000 ft 473 kts 176°
2026-05-04 12:39 -5.86649 -79.39210 35000 ft 473 kts 176°
2026-05-04 12:40 -5.93182 -79.38391 35000 ft 473 kts 176°
2026-05-04 12:40 -5.99710 -79.37573 35000 ft 473 kts 176°
2026-05-04 12:41 -6.06241 -79.36754 35000 ft 473 kts 176°
2026-05-04 12:41 -6.12774 -79.35935 35000 ft 473 kts 176°
2026-05-04 12:42 -6.19296 -79.35117 35000 ft 473 kts 176°
2026-05-04 12:42 -6.25825 -79.34298 35000 ft 473 kts 176°
2026-05-04 12:43 -6.32353 -79.33478 35000 ft 473 kts 176°
2026-05-04 12:43 -6.38886 -79.32658 35000 ft 473 kts 176°
2026-05-04 12:44 -6.45409 -79.31839 35000 ft 473 kts 176°
2026-05-04 12:44 -6.51942 -79.31019 35000 ft 473 kts 176°
2026-05-04 12:45 -6.58466 -79.30199 35000 ft 473 kts 176°
2026-05-04 12:45 -6.64999 -79.29378 35000 ft 473 kts 176°
2026-05-04 12:46 -6.71524 -79.28558 35000 ft 473 kts 176°
2026-05-04 12:46 -6.78054 -79.27737 35000 ft 473 kts 176°
2026-05-04 12:47 -6.84584 -79.26916 35000 ft 473 kts 176°
2026-05-04 12:47 -6.91113 -79.26094 35000 ft 473 kts 176°
2026-05-04 12:48 -6.97642 -79.25273 35000 ft 473 kts 176°
2026-05-04 12:48 -7.04168 -79.24451 35000 ft 473 kts 176°
2026-05-04 12:49 -7.10700 -79.23629 35000 ft 473 kts 176°
2026-05-04 12:49 -7.17230 -79.22807 35000 ft 473 kts 176°
2026-05-04 12:50 -7.23751 -79.21985 35000 ft 473 kts 176°
2026-05-04 12:50 -7.29196 -79.21299 35000 ft 473 kts 176°
2026-05-04 12:51 -7.35726 -79.20476 35000 ft 473 kts 176°
2026-05-04 12:51 -7.42253 -79.19653 35000 ft 473 kts 176°
2026-05-04 12:52 -7.48780 -79.18829 35000 ft 473 kts 176°
2026-05-04 12:52 -7.55310 -79.18006 35000 ft 473 kts 176°
2026-05-04 12:53 -7.61838 -79.17182 35000 ft 473 kts 176°
2026-05-04 12:53 -7.68370 -79.16357 35000 ft 473 kts 176°
2026-05-04 12:54 -7.74898 -79.15533 35000 ft 473 kts 176°
2026-05-04 12:54 -7.81427 -79.14708 35000 ft 473 kts 176°
2026-05-04 12:55 -7.87955 -79.13883 35000 ft 473 kts 176°
2026-05-04 12:55 -7.94484 -79.13057 35000 ft 473 kts 176°
2026-05-04 12:56 -8.01014 -79.12231 35000 ft 473 kts 176°
2026-05-04 12:56 -8.07535 -79.11305 35000 ft 474 kts 173°
2026-05-04 12:57 -8.13998 -79.09905 35000 ft 476 kts 169°
2026-05-04 12:57 -8.20417 -79.08269 35000 ft 476 kts 168°
2026-05-04 12:58 -8.26819 -79.06546 35000 ft 477 kts 168°
2026-05-04 12:58 -8.33216 -79.04798 35000 ft 477 kts 168°
2026-05-04 12:59 -8.39611 -79.03048 35000 ft 477 kts 168°
2026-05-04 12:59 -8.46012 -79.01300 35000 ft 477 kts 168°
2026-05-04 13:00 -8.52412 -78.99559 35000 ft 477 kts 168°
2026-05-04 13:00 -8.58817 -78.97822 35000 ft 477 kts 168°
2026-05-04 13:01 -8.65176 -78.96101 35000 ft 477 kts 168°
2026-05-04 13:01 -8.71617 -78.94360 35000 ft 477 kts 168°
2026-05-04 13:02 -8.78022 -78.92630 35000 ft 477 kts 168°
2026-05-04 13:02 -8.84424 -78.90902 35000 ft 477 kts 168°
2026-05-04 13:03 -8.90823 -78.89175 35000 ft 477 kts 168°
2026-05-04 13:03 -8.97229 -78.87445 35000 ft 477 kts 168°
2026-05-04 13:04 -9.03635 -78.85716 35000 ft 477 kts 168°
2026-05-04 13:04 -9.10035 -78.83988 35000 ft 477 kts 168°
2026-05-04 13:05 -9.16437 -78.82258 35000 ft 477 kts 168°
2026-05-04 13:05 -9.22845 -78.80527 35000 ft 477 kts 168°
2026-05-04 13:06 -9.29248 -78.78796 35000 ft 477 kts 168°
2026-05-04 13:06 -9.35647 -78.77065 35000 ft 477 kts 168°
2026-05-04 13:07 -9.42051 -78.75332 35000 ft 477 kts 168°
2026-05-04 13:07 -9.48452 -78.73600 35000 ft 477 kts 168°
2026-05-04 13:08 -9.54858 -78.71865 35000 ft 477 kts 168°
2026-05-04 13:08 -9.61263 -78.70129 35000 ft 477 kts 168°
2026-05-04 13:09 -9.67653 -78.68358 35000 ft 478 kts 166°
2026-05-04 13:09 -9.73901 -78.66039 35001 ft 480 kts 160°
2026-05-04 13:10 -9.80037 -78.63357 35000 ft 480 kts 159°
2026-05-04 13:10 -9.86109 -78.60548 35000 ft 481 kts 158°
2026-05-04 13:11 -9.92175 -78.57690 35000 ft 481 kts 158°
2026-05-04 13:11 -9.98232 -78.54827 35000 ft 481 kts 158°
2026-05-04 13:12 -10.04294 -78.51966 35000 ft 481 kts 158°
2026-05-04 13:12 -10.10359 -78.49111 35000 ft 481 kts 158°
2026-05-04 13:13 -10.16423 -78.46262 35000 ft 481 kts 158°
2026-05-04 13:13 -10.22494 -78.43416 35000 ft 481 kts 158°
2026-05-04 13:14 -10.28562 -78.40574 35000 ft 481 kts 158°
2026-05-04 13:14 -10.34638 -78.37731 35000 ft 481 kts 158°
2026-05-04 13:15 -10.40704 -78.34893 35000 ft 481 kts 158°
2026-05-04 13:15 -10.46778 -78.32052 35000 ft 481 kts 158°
2026-05-04 13:16 -10.52848 -78.29212 35000 ft 481 kts 158°
2026-05-04 13:16 -10.58918 -78.26371 35000 ft 481 kts 158°
2026-05-04 13:17 -10.64992 -78.23528 35000 ft 481 kts 158°
2026-05-04 13:17 -10.68670 -78.21806 35000 ft 481 kts 158°
2026-05-04 13:18 -10.74744 -78.18961 35000 ft 481 kts 158°
2026-05-04 13:18 -10.80813 -78.16118 35000 ft 481 kts 158°
2026-05-04 13:19 -10.86886 -78.13271 35000 ft 481 kts 158°
2026-05-04 13:19 -10.92959 -78.10423 35000 ft 481 kts 158°
2026-05-04 13:20 -10.99024 -78.07578 35000 ft 481 kts 158°
2026-05-04 13:20 -11.05100 -78.04726 35000 ft 481 kts 158°
2026-05-04 13:21 -11.11169 -78.01876 35000 ft 481 kts 158°
2026-05-04 13:21 -11.17239 -77.99024 35000 ft 481 kts 158°
2026-05-04 13:22 -11.23310 -77.96170 35000 ft 481 kts 158°
2026-05-04 13:22 -11.27210 -77.94336 35000 ft 481 kts 158°
2026-05-04 13:23 -11.33003 -77.91611 35000 ft 481 kts 158°
2026-05-04 13:23 -11.39075 -77.88753 35000 ft 481 kts 158°
2026-05-04 13:24 -11.45144 -77.85895 35000 ft 481 kts 158°
2026-05-04 13:24 -11.51214 -77.83034 35000 ft 481 kts 158°
2026-05-04 13:25 -11.60312 -77.78743 35000 ft 481 kts 158°
2026-05-04 13:25 -11.66382 -77.75879 35000 ft 481 kts 158°
2026-05-04 13:26 -11.72444 -77.73021 35000 ft 481 kts 158°
2026-05-04 13:26 -11.78517 -77.70157 35000 ft 481 kts 158°
2026-05-04 13:27 -11.84587 -77.67293 35000 ft 481 kts 158°
2026-05-04 13:27 -11.90650 -77.64431 35000 ft 481 kts 158°
2026-05-04 13:28 -11.96723 -77.61561 35000 ft 481 kts 158°
2026-05-04 13:28 -12.02790 -77.58693 35000 ft 481 kts 158°
2026-05-04 13:29 -12.08855 -77.55824 35000 ft 481 kts 158°
2026-05-04 13:29 -12.14919 -77.52954 35000 ft 481 kts 158°
2026-05-04 13:30 -12.20989 -77.50079 35000 ft 481 kts 158°
2026-05-04 13:30 -12.27054 -77.47205 35000 ft 481 kts 158°
2026-05-04 13:31 -12.33121 -77.44329 35000 ft 481 kts 158°
2026-05-04 13:31 -12.39186 -77.41452 35000 ft 481 kts 158°
2026-05-04 13:32 -12.45250 -77.38574 35000 ft 481 kts 158°
2026-05-04 13:32 -12.51313 -77.35694 35000 ft 481 kts 158°
2026-05-04 13:33 -12.57383 -77.32811 35000 ft 481 kts 158°
2026-05-04 13:33 -12.63447 -77.29928 35000 ft 481 kts 158°
2026-05-04 13:34 -12.69513 -77.27043 35000 ft 481 kts 158°
2026-05-04 13:34 -12.75573 -77.24159 35000 ft 481 kts 158°
2026-05-04 13:35 -12.84668 -77.19828 35000 ft 481 kts 158°
2026-05-04 13:36 -12.90731 -77.16939 35000 ft 481 kts 158°
2026-05-04 13:36 -12.96795 -77.14048 35000 ft 481 kts 158°
2026-05-04 13:37 -13.02857 -77.11156 35000 ft 481 kts 158°
2026-05-04 13:37 -13.08925 -77.08260 35000 ft 481 kts 158°
2026-05-04 13:38 -13.14987 -77.05365 35000 ft 481 kts 158°
2026-05-04 13:38 -13.21047 -77.02470 35000 ft 481 kts 158°
2026-05-04 13:39 -13.27108 -76.99572 35000 ft 481 kts 158°
2026-05-04 13:39 -13.33171 -76.96672 35000 ft 481 kts 158°
2026-05-04 13:40 -13.39231 -76.93771 35000 ft 481 kts 158°
2026-05-04 13:40 -13.45291 -76.90869 35000 ft 481 kts 158°
2026-05-04 13:41 -13.51350 -76.87966 35000 ft 481 kts 158°
2026-05-04 13:41 -13.57409 -76.85061 35000 ft 481 kts 158°
2026-05-04 13:42 -13.66500 -76.80700 35000 ft 481 kts 158°
2026-05-04 13:42 -13.72565 -76.77787 35000 ft 481 kts 158°
2026-05-04 13:43 -13.78622 -76.74878 35000 ft 481 kts 158°
2026-05-04 13:43 -13.84681 -76.71965 35000 ft 481 kts 158°
2026-05-04 13:44 -13.90736 -76.69052 35000 ft 481 kts 158°
2026-05-04 13:44 -13.96796 -76.66136 35000 ft 481 kts 158°
2026-05-04 13:45 -14.02856 -76.63217 35000 ft 481 kts 158°
2026-05-04 13:45 -14.08917 -76.60296 35000 ft 481 kts 158°
2026-05-04 13:46 -14.14970 -76.57377 35000 ft 481 kts 158°
2026-05-04 13:46 -14.20016 -76.54941 35000 ft 481 kts 158°
2026-05-04 13:47 -14.26110 -76.52113 35000 ft 479 kts 161°
2026-05-04 13:47 -14.32406 -76.49912 35001 ft 477 kts 166°
2026-05-04 13:48 -14.38796 -76.48048 35000 ft 477 kts 168°
2026-05-04 13:48 -14.45209 -76.46306 35000 ft 477 kts 168°
2026-05-04 13:49 -14.51626 -76.44600 35000 ft 477 kts 168°
2026-05-04 13:49 -14.58037 -76.42898 35000 ft 477 kts 168°
2026-05-04 13:50 -14.64462 -76.41185 35000 ft 477 kts 168°
2026-05-04 13:50 -14.70875 -76.39465 35000 ft 477 kts 168°
2026-05-04 13:51 -14.77285 -76.37738 35000 ft 477 kts 168°
2026-05-04 13:51 -14.83700 -76.36002 35000 ft 477 kts 168°
2026-05-04 13:52 -14.93317 -76.33389 35000 ft 477 kts 168°
2026-05-04 13:53 -14.99730 -76.31642 35000 ft 477 kts 168°
2026-05-04 13:53 -15.06136 -76.29893 35000 ft 477 kts 168°
2026-05-04 13:54 -15.15754 -76.27264 35000 ft 477 kts 168°
2026-05-04 13:55 -15.25368 -76.24632 35000 ft 477 kts 168°
2026-05-04 13:55 -15.34982 -76.21996 35000 ft 477 kts 168°
2026-05-04 13:56 -15.41393 -76.20237 35000 ft 477 kts 168°
2026-05-04 13:57 -15.51008 -76.17596 35000 ft 477 kts 168°
2026-05-04 13:58 -15.63826 -76.14071 35000 ft 477 kts 168°
2026-05-04 13:58 -15.73439 -76.11425 35000 ft 477 kts 168°
2026-05-04 13:59 -15.79847 -76.09659 35000 ft 477 kts 168°
2026-05-04 14:00 -15.89459 -76.07008 35000 ft 477 kts 168°
2026-05-04 14:00 -15.99071 -76.04354 35000 ft 477 kts 168°
2026-05-04 14:01 -16.05480 -76.02584 35000 ft 477 kts 168°
2026-05-04 14:02 -16.15094 -75.99925 35000 ft 477 kts 168°
2026-05-04 14:02 -16.21500 -75.98153 35000 ft 477 kts 168°
2026-05-04 14:03 -16.27908 -75.96378 35000 ft 477 kts 168°
2026-05-04 14:03 -16.34315 -75.94602 35000 ft 477 kts 168°
2026-05-04 14:04 -16.43929 -75.91936 35000 ft 477 kts 168°
2026-05-04 14:04 -16.50336 -75.90157 35000 ft 477 kts 168°
2026-05-04 14:05 -16.59948 -75.87487 35000 ft 477 kts 168°
2026-05-04 14:06 -16.66354 -75.85705 35000 ft 477 kts 168°
2026-05-04 14:06 -16.72764 -75.83921 35000 ft 477 kts 168°
2026-05-04 14:07 -16.79170 -75.82137 35000 ft 477 kts 168°
2026-05-04 14:07 -16.85583 -75.80351 35000 ft 477 kts 168°
2026-05-04 14:08 -16.91989 -75.78564 35000 ft 477 kts 168°
2026-05-04 14:08 -16.98394 -75.76777 35000 ft 477 kts 168°
2026-05-04 14:09 -17.08004 -75.74092 35000 ft 477 kts 168°
2026-05-04 14:10 -17.17619 -75.71404 35000 ft 477 kts 168°
2026-05-04 14:10 -17.24024 -75.69612 35000 ft 477 kts 168°
2026-05-04 14:11 -17.30426 -75.67819 35000 ft 477 kts 168°
2026-05-04 14:11 -17.40040 -75.65124 35000 ft 477 kts 168°
2026-05-04 14:12 -17.46445 -75.63327 35000 ft 477 kts 168°
2026-05-04 14:13 -17.56051 -75.60629 35000 ft 477 kts 168°
2026-05-04 14:13 -17.62465 -75.58826 35000 ft 477 kts 168°
2026-05-04 14:14 -17.68869 -75.57025 35000 ft 477 kts 168°
2026-05-04 14:14 -17.78474 -75.54320 35000 ft 477 kts 168°
2026-05-04 14:15 -17.91290 -75.50707 35000 ft 477 kts 168°
2026-05-04 14:16 -18.00897 -75.47995 35000 ft 477 kts 168°
2026-05-04 14:17 -18.10504 -75.45279 35000 ft 477 kts 168°
2026-05-04 14:18 -18.20114 -75.42559 35000 ft 477 kts 168°
2026-05-04 14:19 -18.32920 -75.38921 35000 ft 477 kts 167°
2026-05-04 14:19 -18.39319 -75.37046 35000 ft 477 kts 167°
2026-05-04 14:20 -18.45705 -75.35143 35000 ft 477 kts 167°
2026-05-04 14:20 -18.52086 -75.33229 35000 ft 477 kts 167°
2026-05-04 14:21 -18.61663 -75.30347 35000 ft 477 kts 167°
2026-05-04 14:21 -18.68046 -75.28423 35000 ft 477 kts 167°
2026-05-04 14:22 -18.74432 -75.26498 35000 ft 477 kts 167°
2026-05-04 14:22 -18.80812 -75.24573 35000 ft 477 kts 167°
2026-05-04 14:23 -18.90387 -75.21682 35000 ft 477 kts 167°
2026-05-04 14:24 -18.96772 -75.19752 35000 ft 477 kts 167°
2026-05-04 14:24 -19.03153 -75.17822 35000 ft 477 kts 167°
2026-05-04 14:25 -19.09532 -75.15892 35000 ft 477 kts 167°
2026-05-04 14:25 -19.19112 -75.12990 35000 ft 477 kts 167°
2026-05-04 14:26 -19.25489 -75.11056 35000 ft 477 kts 167°
2026-05-04 14:26 -19.31873 -75.09119 35000 ft 477 kts 167°
2026-05-04 14:27 -19.38255 -75.07181 35000 ft 477 kts 167°
2026-05-04 14:27 -19.44633 -75.05243 35000 ft 477 kts 167°
2026-05-04 14:28 -19.51021 -75.03300 35000 ft 477 kts 167°
2026-05-04 14:28 -19.57398 -75.01358 35000 ft 477 kts 167°
2026-05-04 14:29 -19.70163 -74.97467 35000 ft 477 kts 167°
2026-05-04 14:30 -19.76544 -74.95520 35000 ft 477 kts 167°
2026-05-04 14:31 -19.86117 -74.92595 35000 ft 477 kts 167°
2026-05-04 14:32 -19.98875 -74.88692 35000 ft 477 kts 167°
2026-05-04 14:32 -20.05259 -74.86736 35000 ft 477 kts 167°
2026-05-04 14:33 -20.11639 -74.84780 35000 ft 477 kts 167°
2026-05-04 14:33 -20.18020 -74.82822 35000 ft 477 kts 167°
2026-05-04 14:34 -20.24396 -74.80863 35000 ft 477 kts 167°
2026-05-04 14:34 -20.30778 -74.78901 35000 ft 477 kts 167°
2026-05-04 14:35 -20.37160 -74.76938 35000 ft 477 kts 167°
2026-05-04 14:35 -20.43540 -74.74973 35000 ft 477 kts 167°
2026-05-04 14:36 -20.49916 -74.73008 35000 ft 477 kts 167°
2026-05-04 14:36 -20.56294 -74.71041 35000 ft 477 kts 167°
2026-05-04 14:37 -20.62674 -74.69071 35000 ft 477 kts 167°
2026-05-04 14:37 -20.69053 -74.67100 35000 ft 477 kts 167°
2026-05-04 14:38 -20.75430 -74.65127 35000 ft 477 kts 167°
2026-05-04 14:38 -20.81811 -74.63151 35000 ft 477 kts 167°
2026-05-04 14:39 -20.88191 -74.61174 35000 ft 477 kts 167°
2026-05-04 14:39 -20.94568 -74.59196 35000 ft 478 kts 167°
2026-05-04 14:40 -21.04139 -74.56224 35000 ft 478 kts 167°
2026-05-04 14:40 -21.10516 -74.54240 35000 ft 478 kts 167°
2026-05-04 14:41 -21.16891 -74.52256 35000 ft 478 kts 167°
2026-05-04 14:42 -21.29644 -74.48287 35000 ft 478 kts 167°
2026-05-04 14:42 -21.34965 -74.46629 35000 ft 478 kts 167°
2026-05-04 14:43 -21.41340 -74.44640 35000 ft 478 kts 167°
2026-05-04 14:43 -21.47714 -74.42650 35000 ft 478 kts 167°
2026-05-04 14:44 -21.54093 -74.40656 35000 ft 478 kts 167°
2026-05-04 14:44 -21.60466 -74.38661 35000 ft 478 kts 167°
2026-05-04 14:45 -21.66850 -74.36662 35000 ft 478 kts 167°
2026-05-04 14:45 -21.73224 -74.34663 35000 ft 478 kts 166°
2026-05-04 14:46 -21.79594 -74.32664 35000 ft 478 kts 166°
2026-05-04 14:46 -21.85974 -74.30659 35000 ft 478 kts 166°
2026-05-04 14:47 -21.92348 -74.28655 35000 ft 478 kts 166°
2026-05-04 14:47 -21.98724 -74.26648 35000 ft 478 kts 166°
2026-05-04 14:48 -22.05099 -74.24640 35000 ft 478 kts 166°
2026-05-04 14:48 -22.11475 -74.22629 35000 ft 478 kts 166°
2026-05-04 14:49 -22.17852 -74.20616 35000 ft 478 kts 166°
2026-05-04 14:49 -22.24224 -74.18603 35000 ft 478 kts 166°
2026-05-04 14:50 -22.30603 -74.16585 35000 ft 478 kts 166°
2026-05-04 14:50 -22.36974 -74.14568 35000 ft 478 kts 166°
2026-05-04 14:51 -22.43352 -74.12548 35000 ft 478 kts 166°
2026-05-04 14:51 -22.49724 -74.10527 35000 ft 478 kts 166°
2026-05-04 14:52 -22.56100 -74.08502 35000 ft 478 kts 166°
2026-05-04 14:52 -22.62470 -74.06478 35000 ft 478 kts 166°
2026-05-04 14:53 -22.68849 -74.04449 35000 ft 478 kts 166°
2026-05-04 14:53 -22.75220 -74.02420 35000 ft 478 kts 166°
2026-05-04 14:54 -22.81589 -74.00390 35000 ft 478 kts 166°
2026-05-04 14:54 -22.87966 -73.98356 35000 ft 478 kts 166°
2026-05-04 14:55 -22.94340 -73.96321 35000 ft 478 kts 166°
2026-05-04 14:55 -23.00709 -73.94285 35000 ft 478 kts 166°
2026-05-04 14:56 -23.07082 -73.92246 35000 ft 478 kts 166°
2026-05-04 14:56 -23.13455 -73.90204 35000 ft 478 kts 166°
2026-05-04 14:57 -23.19825 -73.88162 35000 ft 478 kts 166°
2026-05-04 14:57 -23.26197 -73.86117 35000 ft 478 kts 166°
2026-05-04 14:58 -23.32571 -73.84069 35000 ft 478 kts 166°
2026-05-04 14:58 -23.38946 -73.82019 35000 ft 478 kts 166°
2026-05-04 14:59 -23.45318 -73.79968 35000 ft 478 kts 166°
2026-05-04 15:00 -23.54873 -73.76888 35000 ft 478 kts 166°
2026-05-04 15:00 -23.61242 -73.74832 35000 ft 478 kts 166°
2026-05-04 15:01 -23.70798 -73.71744 35000 ft 478 kts 166°
2026-05-04 15:01 -23.77170 -73.69682 35000 ft 478 kts 166°
2026-05-04 15:02 -23.83538 -73.67619 35000 ft 478 kts 166°
2026-05-04 15:02 -23.89910 -73.65552 35000 ft 478 kts 166°
2026-05-04 15:03 -23.96279 -73.63483 35000 ft 478 kts 166°
2026-05-04 15:03 -24.02647 -73.61415 35000 ft 478 kts 166°
2026-05-04 15:04 -24.09021 -73.59348 35000 ft 478 kts 166°
2026-05-04 15:04 -24.15389 -73.57283 35000 ft 478 kts 166°
2026-05-04 15:05 -24.21763 -73.55212 35000 ft 478 kts 166°
2026-05-04 15:05 -24.28128 -73.53143 35000 ft 478 kts 166°
2026-05-04 15:06 -24.34500 -73.51069 35000 ft 478 kts 166°
2026-05-04 15:07 -24.44058 -73.47953 35000 ft 478 kts 166°
2026-05-04 15:07 -24.50423 -73.45874 35000 ft 478 kts 166°
2026-05-04 15:08 -24.56791 -73.43793 35000 ft 478 kts 166°
2026-05-04 15:08 -24.63165 -73.41707 35000 ft 478 kts 166°
2026-05-04 15:09 -24.69526 -73.39623 35000 ft 478 kts 166°
2026-05-04 15:09 -24.75898 -73.37533 35000 ft 478 kts 166°
2026-05-04 15:10 -24.85455 -73.34394 35000 ft 478 kts 166°
2026-05-04 15:11 -24.95002 -73.31254 35000 ft 478 kts 166°
2026-05-04 15:11 -25.01368 -73.29157 35000 ft 478 kts 166°
2026-05-04 15:12 -25.07738 -73.27056 35000 ft 478 kts 166°
2026-05-04 15:12 -25.14104 -73.24955 35000 ft 478 kts 166°
2026-05-04 15:13 -25.20474 -73.22849 35000 ft 478 kts 166°
2026-05-04 15:13 -25.26836 -73.20745 35000 ft 478 kts 166°
2026-05-04 15:14 -25.33208 -73.18634 35000 ft 478 kts 166°
2026-05-04 15:14 -25.39570 -73.16524 35000 ft 478 kts 166°
2026-05-04 15:15 -25.45938 -73.14411 35000 ft 478 kts 166°
2026-05-04 15:15 -25.52305 -73.12295 35000 ft 478 kts 166°
2026-05-04 15:16 -25.61852 -73.09118 35000 ft 478 kts 166°
2026-05-04 15:17 -25.71399 -73.05936 35000 ft 478 kts 166°
2026-05-04 15:17 -25.80946 -73.02748 35000 ft 478 kts 166°
2026-05-04 15:18 -25.87310 -73.00620 35000 ft 478 kts 166°
2026-05-04 15:19 -25.96859 -72.97423 35000 ft 478 kts 166°
2026-05-04 15:19 -26.06397 -72.94224 35000 ft 478 kts 166°
2026-05-04 15:20 -26.12767 -72.92084 35000 ft 478 kts 166°
2026-05-04 15:20 -26.19134 -72.89943 35000 ft 478 kts 166°
2026-05-04 15:21 -26.25495 -72.87802 35000 ft 478 kts 166°
2026-05-04 15:22 -26.35040 -72.84584 35000 ft 478 kts 166°
2026-05-04 15:22 -26.44583 -72.81361 35000 ft 478 kts 166°
2026-05-04 15:23 -26.50944 -72.79210 35000 ft 478 kts 166°
2026-05-04 15:23 -26.57304 -72.77056 35000 ft 478 kts 166°
2026-05-04 15:24 -26.70031 -72.72739 35000 ft 478 kts 166°
2026-05-04 15:25 -26.76390 -72.70579 35000 ft 478 kts 166°
2026-05-04 15:26 -26.85932 -72.67331 35000 ft 478 kts 166°
2026-05-04 15:26 -26.95472 -72.64079 35000 ft 478 kts 166°
2026-05-04 15:27 -27.05007 -72.60823 35000 ft 478 kts 166°
2026-05-04 15:28 -27.14552 -72.57557 35000 ft 478 kts 166°
2026-05-04 15:29 -27.24092 -72.54286 35000 ft 478 kts 166°
2026-05-04 15:30 -27.46346 -72.46632 35000 ft 478 kts 166°
2026-05-04 15:31 -27.55885 -72.43347 35000 ft 478 kts 166°
2026-05-04 15:32 -27.71785 -72.37877 35000 ft 478 kts 166°
2026-05-04 15:34 -27.87681 -72.32391 35000 ft 478 kts 166°
2026-05-04 15:34 -27.97221 -72.29090 35000 ft 478 kts 166°
2026-05-04 15:35 -28.06755 -72.25783 35000 ft 478 kts 166°
2026-05-04 15:36 -28.16293 -72.22469 35000 ft 478 kts 166°
2026-05-04 15:36 -28.22649 -72.20257 35000 ft 478 kts 166°
2026-05-04 15:37 -28.27944 -72.18411 35000 ft 478 kts 166°
2026-05-04 15:37 -28.34302 -72.16192 35000 ft 478 kts 166°
2026-05-04 15:38 -28.41719 -72.13600 35000 ft 478 kts 166°
2026-05-04 15:38 -28.47013 -72.11746 35000 ft 478 kts 166°
2026-05-04 15:39 -28.53370 -72.09515 35000 ft 478 kts 166°
2026-05-04 15:40 -28.62899 -72.06163 35000 ft 478 kts 166°
2026-05-04 15:40 -28.69255 -72.03921 35000 ft 478 kts 166°
2026-05-04 15:41 -28.75606 -72.01678 35000 ft 478 kts 166°
2026-05-04 15:41 -28.81957 -71.99432 35000 ft 478 kts 166°
2026-05-04 15:42 -28.88310 -71.97181 35000 ft 478 kts 166°
2026-05-04 15:42 -28.94662 -71.94927 35000 ft 478 kts 166°
2026-05-04 15:43 -29.01014 -71.92671 35000 ft 478 kts 166°
2026-05-04 15:43 -29.07365 -71.90412 35000 ft 478 kts 165°
2026-05-04 15:44 -29.13715 -71.88150 35000 ft 478 kts 165°
2026-05-04 15:44 -29.20068 -71.85884 35000 ft 478 kts 165°
2026-05-04 15:45 -29.26418 -71.83616 35000 ft 478 kts 165°
2026-05-04 15:45 -29.32766 -71.81345 35000 ft 478 kts 165°
2026-05-04 15:46 -29.39114 -71.79071 35000 ft 478 kts 165°
2026-05-04 15:46 -29.45463 -71.76794 35000 ft 478 kts 165°
2026-05-04 15:47 -29.51816 -71.74528 35000 ft 478 kts 166°
2026-05-04 15:47 -29.58167 -71.72269 35000 ft 478 kts 166°
2026-05-04 15:48 -29.64523 -71.70008 35000 ft 478 kts 166°
2026-05-04 15:48 -29.74051 -71.66613 35000 ft 478 kts 166°
2026-05-04 15:49 -29.80406 -71.64344 35000 ft 478 kts 166°
2026-05-04 15:49 -29.86761 -71.62071 35000 ft 478 kts 166°
2026-05-04 15:50 -29.93111 -71.59797 35000 ft 478 kts 166°
2026-05-04 15:50 -29.99467 -71.57517 35000 ft 478 kts 166°
2026-05-04 15:51 -30.05815 -71.55236 35000 ft 478 kts 165°
2026-05-04 15:51 -30.12166 -71.52951 35000 ft 478 kts 165°
2026-05-04 15:52 -30.18518 -71.50661 35000 ft 478 kts 165°
2026-05-04 15:52 -30.24857 -71.48337 35000 ft 479 kts 163°
2026-05-04 15:53 -30.31053 -71.45440 35001 ft 481 kts 159°
2026-05-04 15:53 -30.37111 -71.42149 35000 ft 482 kts 156°
2026-05-04 15:54 -30.43120 -71.38699 35000 ft 482 kts 156°
2026-05-04 15:54 -30.49106 -71.35199 35000 ft 482 kts 156°
2026-05-04 15:55 -30.55089 -71.31686 35000 ft 482 kts 156°
2026-05-04 15:55 -30.61074 -71.28176 35000 ft 482 kts 156°
2026-05-04 15:56 -30.67060 -71.24672 35000 ft 482 kts 156°
2026-05-04 15:56 -30.73053 -71.21169 35000 ft 482 kts 156°
2026-05-04 15:57 -30.79042 -71.17672 35000 ft 482 kts 156°
2026-05-04 15:57 -30.85040 -71.14170 35000 ft 482 kts 156°
2026-05-04 15:58 -30.91033 -71.10670 35000 ft 482 kts 156°
2026-05-04 15:58 -30.97024 -71.07167 35000 ft 482 kts 156°
2026-05-04 15:59 -31.03017 -71.03661 35000 ft 482 kts 156°
2026-05-04 15:59 -31.09011 -71.00149 35000 ft 482 kts 156°
2026-05-04 16:00 -31.15003 -70.96633 35000 ft 482 kts 156°
2026-05-04 16:00 -31.20992 -70.93114 35000 ft 482 kts 156°
2026-05-04 16:01 -31.26979 -70.89589 35000 ft 482 kts 156°
2026-05-04 16:01 -31.33095 -70.86450 35000 ft 478 kts 167°
2026-05-04 16:02 -31.39597 -70.85176 35003 ft 473 kts 178°
2026-05-04 16:03 -31.49424 -70.84950 35001 ft 470 kts 184°
2026-05-04 16:03 -31.55965 -70.85121 35000 ft 470 kts 184°
2026-05-04 16:04 -31.62507 -70.85285 35000 ft 470 kts 184°
2026-05-04 16:04 -31.72323 -70.85365 35000 ft 471 kts 182°
2026-05-04 16:05 -31.78881 -70.85234 35000 ft 472 kts 181°
2026-05-04 16:06 -31.88712 -70.84892 35000 ft 472 kts 181°
2026-05-04 16:07 -32.01829 -70.84384 35000 ft 472 kts 181°
2026-05-04 16:08 -32.14946 -70.83892 35000 ft 472 kts 181°
2026-05-04 16:09 -32.31337 -70.83302 35000 ft 472 kts 181°
2026-05-04 16:10 -32.39235 -70.83018 35000 ft 472 kts 181°
2026-05-04 16:11 -32.52352 -70.82546 35000 ft 472 kts 181°
2026-05-04 16:12 -32.72022 -70.81834 35000 ft 472 kts 181°
2026-05-04 16:13 -32.85136 -70.81358 35000 ft 472 kts 181°
2026-05-04 16:14 -32.98256 -70.80882 35000 ft 472 kts 181°
2026-05-04 16:16 -33.14648 -70.80287 35000 ft 472 kts 181°
2026-05-04 16:17 -33.31033 -70.79689 35000 ft 472 kts 181°
2026-05-04 16:18 -33.44115 -70.78596 34997 ft 479 kts 165°
2026-05-04 16:19 -33.51575 -70.70831 35003 ft 493 kts 118°
2026-05-04 16:19 -33.52957 -70.62830 35003 ft 496 kts 87°
2026-05-04 16:20 -33.48657 -70.51993 35002 ft 487 kts 40°
2026-05-04 16:20 -33.42763 -70.48404 35002 ft 475 kts
2026-05-04 16:21 -33.33517 -70.50691 35005 ft 456 kts 323°
2026-05-04 16:22 -33.27936 -70.54057 34953 ft 443 kts 343°
2026-05-04 16:22 -33.18892 -70.55066 31645 ft 437 kts 353°
2026-05-04 16:23 -33.09853 -70.55669 27890 ft 429 kts 353°
2026-05-04 16:24 -32.98180 -70.56432 22893 ft 411 kts 353°
2026-05-04 16:25 -32.92542 -70.56793 20397 ft 402 kts 353°
2026-05-04 16:26 -32.81637 -70.57480 15396 ft 383 kts 353°
2026-05-04 16:26 -32.74144 -70.57945 13981 ft 318 kts 353°
2026-05-04 16:27 -32.71399 -70.58388 13981 ft 279 kts 336°
2026-05-04 16:28 -32.68639 -70.63640 12053 ft 278 kts 266°
2026-05-04 16:28 -32.71643 -70.69642 9383 ft 300 kts 224°
2026-05-04 16:29 -32.77385 -70.74751 9992 ft 238 kts 219°
2026-05-04 16:30 -32.81563 -70.78170 8976 ft 249 kts 215°
2026-05-04 16:31 -32.84513 -70.80198 8526 ft 235 kts 213°
2026-05-04 16:31 -32.89147 -70.81490 8502 ft 231 kts 189°
2026-05-04 16:32 -32.93955 -70.81944 7774 ft 235 kts 189°
2026-05-04 16:33 -32.96663 -70.82209 7176 ft 232 kts 189°
2026-05-04 16:33 -32.99787 -70.82486 7007 ft 222 kts 188°
2026-05-04 16:34 -33.02914 -70.82615 6817 ft 228 kts 187°
2026-05-04 16:34 -33.04497 -70.82671 6696 ft 228 kts 187°
2026-05-04 16:35 -33.09256 -70.82634 6315 ft 234 kts 172°
2026-05-04 16:35 -33.14030 -70.81466 5984 ft 233 kts 181°
2026-05-04 16:36 -33.15655 -70.81504 5798 ft 235 kts 185°
2026-05-04 16:36 -33.18959 -70.81563 5136 ft 238 kts 179°
2026-05-04 16:37 -33.22047 -70.81368 4630 ft 219 kts 176°
2026-05-04 16:37 -33.23579 -70.81252 4295 ft 220 kts 176°
2026-05-04 16:37 -33.26633 -70.81054 3547 ft 214 kts 177°
2026-05-04 16:38 -33.29677 -70.80892 3037 ft 221 kts 177°
2026-05-04 16:39 -33.33660 -70.80599 2302 ft 179 kts 176°
2026-05-04 16:39 -33.34133 -70.80567 2201 ft 173 kts 177°
2026-05-04 16:40 -33.36432 -70.80426 1681 ft 153 kts 177°
2026-05-04 16:40 -33.38210 -70.80320 1562 ft 82 kts 178°
2026-05-04 16:41 -33.38915 -70.80279 1562 ft 52 kts 176°
2026-05-04 16:41 -33.39606 -70.79971 1563 ft 24 kts 179°
2026-05-04 16:42 -33.39888 -70.79870 1563 ft 14 kts 83°
2026-05-04 16:43 -33.39945 -70.79741 1563 ft 0 kts 190°